User: anonymous   Login
Location: Unspecified
(0.0000°N, 0.0000°E)
Time: 05:17:33
(UTC+00:00)
Language:

SWISSCUBE - Orbit

View from above orbital plane
View from above orbital plane
View from above satellite
View from above satellite

Ground track
Ground track

The orbit data is extracted from the following two-line orbital elements,

1 35932U 09051B   19083.77970847  .00000112  00000-0  36240-4 0  9990
2 35932  98.5772 247.2824 0008707  73.2081 287.0070 14.56255627504279
Epoch (UTC): 24 March 2019 18:42:46
Eccentricity: 0.0008707
inclination: 98.5772°
perigee height: 699 km
apogee height: 711 km
right ascension of ascending node: 247.2824°
argument of perigee: 73.2081°
revolutions per day: 14.56255627
mean anomaly at epoch: 287.0070°
orbit number at epoch: 50427

The dashed part of the orbit path shows where the satellite is in the earth's shadow,  

DLR